Date_and_time,latitude,longitude,wind_speed,RelWindDirFrom,WindDirFrom,air_pressure,air_temperature,relative_humidity,Temp,platform_speed_wrt_ground,air_pressure_at_mean_sea_level,platform_orientation
2019-04-03 23:40,50.63045,-96.9807683333333,3.8,5.8,85,997.70,-3.6,61,2.02,0.0,1026.21,0.0
2019-04-03 23:50,50.63045,-96.9807666666667,3.7,5.0,73,997.74,-4.3,65,2.03,0.0,1026.29,0.0
2019-04-04 00:00,50.63045,-96.9807666666667,3.4,5.3,49,997.80,-5.0,65,2.05,0.0,1026.39,0.0
2019-04-04 00:10,50.6304483333333,-96.9807666666667,4.4,5.1,54,997.82,-6.0,70,2.06,0.0,1026.42,0.0
2019-04-04 00:20,50.6304483333333,-96.9807666666667,3.8,4.8,55,997.81,-6.3,73,2.06,0.0,1026.45,0.0
2019-04-04 00:30,50.6304483333333,-96.9807666666667,2.2,4.0,61,997.83,-6.6,73,2.06,0.0,1026.51,0.0
2019-04-04 00:40,50.63045,-96.9807666666667,3.5,5.2,77,997.82,-6.3,69,2.07,0.0,1026.47,0.0
2019-04-04 00:50,50.63045,-96.9807666666667,1.9,3.4,33,997.85,-7.2,72,2.08,0.0,1026.50,0.0
2019-04-04 01:00,50.630455,-96.980775,3.9,5.4,20,997.84,-8.1,74,2.09,0.0,1026.57,311.7
2019-04-04 01:10,50.6304516666667,-96.9807766666667,3.6,4.6,17,997.77,-9.0,79,2.08,0.0,1026.57,311.7
2019-04-04 01:20,50.63046,-96.9807783333333,2.0,3.0,49,997.86,-9.1,78,2.09,0.0,1026.68,311.7
2019-04-04 01:30,50.6304516666667,-96.9807616666667,1.9,2.7,21,997.92,-9.3,79,2.10,0.0,1026.76,311.7
2019-04-04 01:40,50.6304533333333,-96.98076,1.9,3.2,35,997.94,-9.3,78,2.10,0.0,1026.82,311.7
2019-04-04 01:50,50.6304533333333,-96.9807633333333,1.9,2.8,48,998.01,-9.4,78,2.11,0.0,1026.93,311.7
2019-04-04 02:00,50.630455,-96.9807733333333,2.3,4.1,29,997.97,-9.6,77,2.11,0.0,1026.96,270.0
2019-04-04 02:10,50.6304533333333,-96.98077,3.0,4.2,22,998.01,-9.9,76,2.11,0.0,1027.03,270.0
2019-04-04 02:20,50.630455,-96.9807716666667,2.3,3.6,47,998.09,-9.8,72,2.11,0.0,1027.13,270.0
2019-04-04 02:30,50.63045,-96.980755,1.3,2.5,71,998.08,-9.6,71,2.10,0.0,1027.09,270.0
2019-04-04 02:40,50.6304533333333,-96.98076,1.4,2.7,97,998.11,-9.4,69,2.10,0.0,1027.15,270.0
2019-04-04 02:50,50.6304566666667,-96.98076,1.7,3.2,105,998.10,-9.2,68,2.09,0.0,1027.18,270.0
2019-04-04 03:00,50.6304533333333,-96.9807633333333,0.7,2.8,105,998.15,-9.5,68,2.09,0.0,1027.31,90.0
2019-04-04 03:10,50.6304466666667,-96.9807683333333,1.4,3.4,131,998.21,-9.4,68,2.08,0.0,1027.37,90.0
2019-04-04 03:20,50.6304466666667,-96.9807716666667,1.1,2.3,131,998.30,-9.1,67,2.07,0.0,1027.45,90.0
2019-04-04 03:30,50.6304466666667,-96.9807683333333,1.7,4.0,131,998.35,-9.1,67,2.07,0.0,1027.50,90.0
2019-04-04 03:40,50.6304733333333,-96.9807716666667,2.5,4.9,136,998.37,-8.7,67,2.06,0.0,1027.51,90.0
2019-04-04 03:50,50.63042,-96.98076,1.2,1.9,183,998.45,-9.0,68,2.05,0.0,1027.62,90.0
2019-04-04 04:00,50.6304333333333,-96.9807683333333,2.2,3.2,178,998.46,-8.9,68,2.05,0.0,1027.64,152.4
2019-04-04 04:10,50.6304416666667,-96.9807633333333,1.7,3.4,163,998.46,-8.9,69,2.05,0.0,1027.63,152.4
2019-04-04 04:20,50.6304433333333,-96.9807633333333,3.2,4.5,41,998.44,-9.6,71,2.03,0.0,1027.64,152.4
2019-04-04 04:30,50.630445,-96.980765,4.1,5.4,46,998.35,-11.4,75,2.02,0.0,1027.64,152.4
2019-04-04 04:40,50.6304516666667,-96.9807716666667,2.4,4.3,65,998.26,-11.4,75,2.01,0.0,1027.54,152.4
2019-04-04 04:50,50.63044,-96.9807683333333,2.8,4.0,112,998.26,-9.8,70,2.01,0.0,1027.46,152.4
2019-04-04 05:00,50.630445,-96.9807866666667,3.8,5.0,121,998.27,-9.1,67,2.01,0.0,1027.43,229.4
2019-04-04 05:10,50.6304483333333,-96.9807833333333,4.3,6.6,136,998.29,-9.6,68,1.99,0.0,1027.46,229.4
2019-04-04 05:20,50.6304533333333,-96.9807683333333,3.9,6.4,141,998.39,-9.5,70,1.98,0.0,1027.56,229.4
2019-04-04 05:30,50.6304533333333,-96.9807616666667,3.8,5.6,163,998.47,-9.6,72,1.98,0.0,1027.62,229.4
2019-04-04 05:40,50.6304433333333,-96.9807733333333,4.6,5.7,158,998.47,-8.8,72,1.95,0.0,1027.59,229.4
2019-04-04 05:50,50.6304516666667,-96.980775,5.1,7.1,166,998.47,-8.7,73,1.94,0.0,1027.59,229.4
2019-04-04 06:00,50.6304466666667,-96.98077,5.8,7.3,169,998.49,-8.6,73,1.94,0.0,1027.60,142.0
2019-04-04 06:10,50.6304466666667,-96.9807716666667,7.3,9.6,161,998.51,-8.4,74,1.95,0.0,1027.65,142.0
2019-04-04 06:20,50.6304483333333,-96.9807716666667,6.9,9.3,155,998.51,-8.6,76,1.95,0.0,1027.76,142.0
2019-04-04 06:30,50.63045,-96.9807766666667,5.7,7.4,159,998.54,-9.0,79,1.94,0.0,1027.81,142.0
2019-04-04 06:40,50.6304483333333,-96.9807833333333,6.2,8.1,156,998.53,-9.2,81,1.92,0.0,1027.72,142.0
2019-04-04 06:50,50.6304516666667,-96.980775,6.8,7.7,168,998.59,-9.2,84,1.93,0.0,1027.74,142.0
2019-04-04 07:00,50.6304516666667,-96.9807733333333,5.8,6.9,143,998.50,-8.9,85,1.94,0.0,1027.67,360.0
2019-04-04 07:10,50.6304516666667,-96.9807716666667,5.5,6.5,134,998.42,-9.3,86,1.93,0.0,1027.60,360.0
2019-04-04 07:20,50.6304516666667,-96.9807733333333,4.8,6.6,138,998.37,-9.3,85,1.92,0.0,1027.55,360.0
2019-04-04 07:30,50.63045,-96.9807733333333,5.1,6.4,149,998.35,-9.8,86,1.93,0.0,1027.51,360.0
2019-04-04 07:40,50.630445,-96.9807666666667,6.5,7.3,144,998.30,-9.7,86,1.93,0.0,1027.45,360.0
2019-04-04 07:50,50.6304483333333,-96.9807616666667,6.5,7.1,147,998.25,-9.8,86,1.94,0.0,1027.40,360.0
2019-04-04 08:00,50.630455,-96.9807716666667,6.4,7.3,146,998.23,-9.8,86,1.94,0.0,1027.37,49.4
2019-04-04 08:10,50.63045,-96.9807683333333,6.6,7.3,143,998.13,-9.8,85,1.95,0.0,1027.28,49.4
2019-04-04 08:20,50.630445,-96.9807616666667,5.6,6.2,146,998.05,-10.0,87,1.95,0.0,1027.24,49.4
2019-04-04 08:30,50.6304433333333,-96.9807616666667,5.7,7.1,144,997.94,-9.9,87,1.95,0.0,1027.12,49.4
2019-04-04 08:40,50.6304433333333,-96.9807616666667,6.5,7.2,145,997.82,-9.4,87,1.95,0.0,1026.97,49.4
2019-04-04 08:50,50.6304433333333,-96.9807616666667,6.1,7.7,141,997.71,-9.0,86,1.95,0.0,1026.82,49.4
2019-04-04 09:00,50.6304433333333,-96.9807633333333,7.2,9.9,151,997.63,-8.8,85,1.95,0.0,1026.74,360.0
2019-04-04 09:10,50.6304433333333,-96.9807633333333,7.8,9.8,158,997.47,-8.7,85,1.94,0.0,1026.57,360.0
2019-04-04 09:20,50.630445,-96.980765,8.1,9.9,157,997.33,-8.6,86,1.93,0.0,1026.45,360.0
2019-04-04 09:30,50.630445,-96.9807633333333,9.1,11.3,157,997.17,-8.5,85,1.94,0.0,1026.28,360.0
2019-04-04 09:40,50.6304433333333,-96.980765,10.0,12.1,148,997.02,-8.3,83,1.94,0.0,1026.12,360.0
2019-04-04 09:50,50.6304433333333,-96.980765,10.3,12.4,147,996.99,-8.1,82,1.94,0.0,1026.08,360.0
2019-04-04 10:00,50.6304433333333,-96.980765,10.9,12.9,150,996.91,-8.1,82,1.91,0.0,1025.99,360.0
2019-04-04 10:10,50.6304433333333,-96.980765,10.5,12.2,153,996.88,-8.3,82,1.87,0.0,1025.99,360.0
2019-04-04 10:20,50.6304433333333,-96.980765,8.8,11.5,155,996.83,-8.4,83,1.86,0.0,1025.94,360.0
2019-04-04 10:30,50.6304416666667,-96.980765,8.9,11.0,148,996.62,-8.6,85,1.86,0.0,1025.71,360.0
2019-04-04 10:40,50.6304216666667,-96.980745,9.5,11.0,148,996.44,-8.7,86,1.86,0.0,1025.50,360.0
2019-04-04 10:50,50.630435,-96.980745,10.3,11.6,150,996.34,-8.6,85,1.86,0.0,1025.38,360.0
2019-04-04 11:00,50.630445,-96.9807716666667,9.9,11.9,152,996.21,-8.4,83,1.86,0.0,1025.23,360.0
2019-04-04 11:10,50.6304416666667,-96.9807666666667,10.1,13.3,151,996.08,-8.3,83,1.86,0.0,1025.08,360.0
2019-04-04 11:20,50.6304416666667,-96.980765,13.2,14.7,149,995.86,-7.8,80,1.85,0.0,1024.82,360.0
2019-04-04 11:30,50.6304416666667,-96.9807666666667,12.6,14.4,146,995.57,-7.6,80,1.85,0.0,1024.50,360.0
2019-04-04 11:40,50.6304133333333,-96.9807783333333,12.5,14.9,145,995.31,-7.3,78,1.84,0.0,1024.21,360.0
2019-04-04 11:50,50.6304366666667,-96.9807733333333,13.0,15.6,146,995.18,-6.9,76,1.84,0.0,1024.05,360.0
2019-04-04 12:00,50.630435,-96.9807766666667,13.0,15.0,148,995.10,-6.9,77,1.84,0.0,1023.99,228.3
2019-04-04 12:10,50.6304383333333,-96.9807716666667,13.5,15.7,148,994.97,-7.0,79,1.84,0.0,1023.87,228.3
2019-04-04 12:20,50.6304383333333,-96.9807716666667,13.7,15.7,148,994.94,-6.8,78,1.84,0.0,1023.82,228.3
2019-04-04 12:30,50.63044,-96.98077,13.0,15.4,151,994.90,-6.4,76,1.83,0.0,1023.77,228.3
2019-04-04 12:40,50.63044,-96.98077,12.5,15.4,154,994.83,-6.1,76,1.83,0.0,1023.68,228.3
2019-04-04 12:50,50.6304416666667,-96.9807683333333,11.8,15.3,158,994.87,-6.1,77,1.83,0.0,1023.70,228.3
2019-04-04 13:00,50.6304416666667,-96.9807683333333,11.7,13.8,155,994.73,-6.1,78,1.83,0.0,1023.56,0.0
2019-04-04 13:10,50.6304416666667,-96.9807683333333,13.7,16.0,150,994.49,-5.7,77,1.83,0.0,1023.26,0.0
2019-04-04 13:20,50.6304416666667,-96.9807683333333,13.5,15.5,150,994.40,-5.6,77,1.83,0.0,1023.15,0.0
2019-04-04 13:30,50.6304416666667,-96.9807683333333,15.4,17.7,150,994.15,-5.5,75,1.83,0.0,1022.87,0.0
2019-04-04 13:40,50.63044,-96.9807683333333,15.7,18.8,153,994.10,-5.3,73,1.83,0.0,1022.79,0.0
2019-04-04 13:50,50.6304416666667,-96.9807683333333,14.3,18.2,157,994.13,-4.9,73,1.83,0.0,1022.80,0.0
2019-04-04 14:00,50.63044,-96.9807683333333,13.0,15.9,160,994.10,-4.7,73,1.82,0.0,1022.77,90.0
2019-04-04 14:10,50.63045,-96.9807733333333,12.9,15.7,159,993.96,-4.5,73,1.80,0.0,1022.59,90.0
2019-04-04 14:20,50.6304433333333,-96.9807716666667,12.2,15.2,157,993.80,-4.3,74,1.78,0.0,1022.41,90.0
2019-04-04 14:30,50.6304416666667,-96.9807733333333,12.2,14.6,153,993.54,-4.3,74,1.79,0.0,1022.12,90.0
2019-04-04 14:40,50.6304433333333,-96.9807783333333,13.9,17.5,152,993.28,-3.7,72,1.79,0.0,1021.82,90.0
2019-04-04 14:50,50.6304433333333,-96.9807766666667,14.5,17.3,153,993.04,-3.2,70,1.78,0.0,1021.54,90.0
2019-04-04 15:00,50.6304416666667,-96.9807766666667,15.9,19.7,149,992.76,-2.9,68,1.78,0.0,1021.22,38.0
2019-04-04 15:10,50.6304416666667,-96.9807766666667,17.4,21.6,147,992.47,-2.5,66,1.77,0.0,1020.90,38.0
2019-04-04 15:20,50.6304416666667,-96.9807766666667,17.2,20.6,145,992.27,-2.2,67,1.77,0.0,1020.66,38.0
2019-04-04 15:30,50.6304416666667,-96.9807766666667,17.0,20.9,149,992.15,-2.0,66,1.77,0.0,1020.52,38.0
2019-04-04 15:40,50.6304416666667,-96.980775,15.8,20.3,153,992.14,-1.6,66,1.75,0.0,1020.47,38.0
2019-04-04 15:50,50.6304416666667,-96.980775,16.3,19.8,153,992.02,-1.5,67,1.74,0.0,1020.32,38.0
2019-04-04 16:00,50.6304416666667,-96.980775,16.7,20.9,151,991.95,-1.2,67,1.74,0.0,1020.23,270.0
2019-04-04 16:10,50.6304416666667,-96.9807733333333,16.0,19.5,154,991.88,-1.1,68,1.74,0.0,1020.14,270.0
2019-04-04 16:20,50.6304416666667,-96.9807733333333,16.8,21.4,156,991.77,-0.7,67,1.73,0.0,1020.00,270.0
2019-04-04 16:30,50.6304033333333,-96.9807333333333,17.7,22.0,157,991.66,-0.3,68,1.73,0.0,1019.84,270.0
2019-04-04 16:40,50.6304316666667,-96.98076,18.9,23.5,154,991.40,-0.1,68,1.74,0.0,1019.54,270.0
2019-04-04 16:50,50.630425,-96.9807783333333,18.9,23.8,156,991.20,-0.1,70,1.74,0.0,1019.32,270.0
2019-04-04 17:00,50.6304383333333,-96.98076,19.4,31.0,161,991.05,0.1,67,1.75,0.0,1019.13,90.0
2019-04-04 17:10,50.6304383333333,-96.9807616666667,19.0,26.9,160,990.89,0.7,65,1.75,0.0,1018.92,90.0
2019-04-04 17:20,50.6304383333333,-96.9807633333333,22.1,29.8,162,990.57,1.1,61,1.73,0.0,1018.55,90.0
2019-04-04 17:30,50.6304383333333,-96.980765,20.0,27.2,162,990.46,1.0,63,1.72,0.0,1018.43,90.0
2019-04-04 17:40,50.6304366666667,-96.9807633333333,19.6,25.1,160,990.28,0.8,65,1.72,0.0,1018.25,90.0
2019-04-04 17:50,50.6304366666667,-96.9807583333333,19.3,24.2,158,990.15,0.8,66,1.72,0.0,1018.10,90.0
2019-04-04 18:00,50.63044,-96.9807666666667,21.6,30.2,164,989.89,1.6,60,1.71,0.0,1017.79,90.0
2019-04-04 18:10,50.63044,-96.9807733333333,19.6,26.4,165,989.69,1.7,61,1.72,0.0,1017.56,90.0
2019-04-04 18:20,50.63044,-96.9807766666667,18.2,31.5,163,989.49,1.9,62,1.72,0.0,1017.32,90.0
2019-04-04 18:30,50.63044,-96.9807783333333,17.2,24.4,156,989.26,1.1,71,1.73,0.0,1017.11,90.0
2019-04-04 18:40,50.6304416666667,-96.9807766666667,19.3,28.1,160,988.97,1.4,66,1.72,0.0,1016.79,90.0
2019-04-04 18:50,50.6304416666667,-96.9807766666667,27.1,33.9,170,988.53,2.9,54,1.72,0.0,1016.26,90.0
2019-04-04 19:00,50.6304416666667,-96.980775,24.2,31.6,171,988.48,2.9,56,1.72,0.0,1016.18,0.0
2019-04-04 19:10,50.6304416666667,-96.9807733333333,24.2,31.3,168,988.35,2.7,58,1.70,0.0,1016.03,0.0
2019-04-04 19:20,50.6304416666667,-96.9807716666667,22.9,29.8,169,988.22,2.8,59,1.67,0.0,1015.90,0.0
2019-04-04 19:30,50.6304416666667,-96.9807733333333,26.1,37.2,173,987.98,2.4,70,1.65,0.0,1015.68,0.0
2019-04-04 19:40,50.6304416666667,-96.9807716666667,24.6,34.7,176,987.92,1.6,83,1.66,0.0,1015.67,0.0
2019-04-04 19:50,50.6304416666667,-96.9807716666667,23.0,31.5,174,988.00,0.8,98,1.67,0.0,1015.75,0.0
2019-04-04 20:00,50.6304416666667,-96.9807716666667,22.1,26.4,172,988.05,0.2,101,1.68,0.0,1015.82,270.0
2019-04-04 20:10,50.6304416666667,-96.9807716666667,22.5,28.0,171,987.37,0.0,102,1.68,0.0,1015.12,270.0
2019-04-04 20:20,50.6304416666667,-96.9807716666667,23.1,31.3,164,986.85,-0.1,102,1.69,0.0,1014.63,270.0
2019-04-04 20:30,50.6304416666667,-96.9807716666667,26.3,33.4,164,986.36,-0.2,103,1.69,0.0,1014.11,270.0
2019-04-04 20:40,50.6304416666667,-96.9807716666667,23.3,28.6,165,986.36,-0.2,103,1.69,0.0,1014.05,270.0
2019-04-04 20:50,50.6304416666667,-96.9807716666667,24.3,29.6,167,986.22,-0.1,103,1.69,0.0,1013.90,270.0
2019-04-04 21:00,50.630445,-96.9807633333333,21.7,27.4,166,986.20,-0.1,103,1.69,0.0,1013.88,90.0
2019-04-04 21:10,50.630445,-96.980765,20.7,26.4,171,986.22,-0.1,103,1.69,0.0,1013.90,90.0
2019-04-04 21:20,50.6304466666667,-96.980765,19.4,24.3,170,986.24,-0.0,103,1.70,0.0,1013.94,90.0
2019-04-04 21:30,50.6304483333333,-96.980765,21.1,27.4,172,986.09,0.0,103,1.70,0.0,1013.82,90.0
2019-04-04 21:40,50.6304466666667,-96.9807633333333,20.3,26.8,172,986.01,0.1,103,1.68,0.0,1013.78,90.0
2019-04-04 21:50,50.630445,-96.9807633333333,20.1,25.3,172,985.94,0.1,104,1.67,0.0,1013.73,90.0
2019-04-04 22:00,50.630445,-96.9807616666667,20.1,27.0,173,985.87,0.1,104,1.67,0.0,1013.67,90.0
2019-04-04 22:10,50.63042,-96.9807483333333,20.3,25.9,174,985.78,0.2,104,1.68,0.0,1013.58,90.0
2019-04-04 22:20,50.6304333333333,-96.98076,20.8,26.3,174,985.66,0.2,104,1.68,0.0,1013.45,90.0
2019-04-04 22:30,50.6304383333333,-96.9807633333333,21.4,31.2,174,985.55,0.3,104,1.69,0.0,1013.35,90.0
2019-04-04 22:40,50.63044,-96.98076,21.6,26.8,174,985.47,0.3,104,1.70,0.0,1013.25,90.0
2019-04-04 22:50,50.63044,-96.98076,21.4,29.2,174,985.37,0.3,104,1.68,0.0,1013.15,90.0
2019-04-04 23:00,50.6304416666667,-96.9807633333333,20.3,29.2,173,985.35,0.4,104,1.68,0.0,1013.12,90.0
2019-04-04 23:10,50.6304433333333,-96.9807633333333,19.8,25.4,174,985.30,0.7,104,1.68,0.0,1013.06,90.0
2019-04-04 23:20,50.6304366666667,-96.9807666666667,20.8,26.4,173,985.13,1.0,103,1.68,0.0,1012.86,90.0
2019-04-04 23:30,50.6304383333333,-96.9807733333333,20.4,26.5,174,985.00,1.1,102,1.65,0.0,1012.72,90.0
2019-04-04 23:40,50.6304283333333,-96.9807716666667,19.9,27.2,176,984.84,1.1,102,1.64,0.0,1012.56,90.0
2019-04-04 23:50,50.6304333333333,-96.9807716666667,20.5,28.2,176,984.72,1.1,102,1.64,0.0,1012.43,90.0
